Weather observations for the past three days for
Juneau, Juneau International Airport
Metric (Imperial)
Date Time (akdt) Wind (kph) Vis. (km) Weather Sky Cond. Temperature (ºC) Relative Humidity Wind Chill (°C) Heat Index (°C) Pressure Precipitation (cm)
Air Dwpt 6 hour altimeter (cm) sea level (mb) 1 hr 3 hr 6 hr
Max. Min.
03 15:53 E 9 16.09 Overcast FEW014 SCT028 OVC036 9.4 6.7 10 7.8 83% 8 77.06 1027.2
03 14:53 E 6 16.09 Overcast FEW018 BKN032 OVC044 10 6.7 80% 77.06 1027.4
03 13:53 Calm 16.09 Overcast FEW012 BKN030 OVC043 9.4 6.7 83% 77.06 1027.4
03 12:53 E 15 16.09 Overcast FEW012 BKN030 OVC043 8.9 6.7 86% 7 77.06 1027.3
03 11:53 E 19 16.09 Overcast FEW012 BKN038 OVC050 8.9 6.7 86% 6 77.06 1027.2
03 10:53 E 11 16.09 Overcast FEW009 BKN035 OVC048 8.9 6.7 86% 7 77.04 1027.2
03 09:53 SW 6 16.09 Overcast SCT011 BKN035 OVC049 7.8 6.1 8.3 6.1 89% 77.06 1027.4
03 08:53 SE 9 16.09 Overcast FEW009 BKN035 OVC050 7.2 6.1 93% 6 77.04 1027.2
03 06:53 E 7 16.09 Overcast FEW005 BKN030 OVC050 6.1 5.6 97% 5 77.06 1027.3
03 05:53 E 6 16.09 Overcast FEW003 BKN012 OVC050 6.1 5.6 97% 77.04 1027.1
03 04:53 Calm 16.09 Overcast FEW004 BKN013 OVC035 6.1 5.6 97% 77.06 1027.5
03 03:53 SE 11 16.09 Overcast FEW003 SCT015 OVC030 6.7 6.1 7.8 6.1 96% 5 77.06 1027.3
03 02:53 E 7 16.09 Overcast FEW004 SCT030 OVC042 6.1 5.6 97% 5 77.06 1027.5
03 01:53 E 6 16.09 Overcast FEW009 BKN030 OVC042 6.7 5.6 93% 77.09 1027.8
03 00:53 E 9 16.09 Overcast FEW007 SCT016 OVC038 6.7 6.1 96% 5 77.06 1027.4
02 23:53 E 11 16.09 Overcast FEW007 BKN030 OVC040 7.2 6.1 93% 5 77.04 1026.9
02 22:53 E 15 16.09 Overcast FEW006 BKN030 OVC037 7.8 6.1 89% 6 77.04 1027.0
02 21:53 E 7 16.09 Overcast FEW006 BKN029 OVC037 7.8 6.1 8.3 7.2 89% 7 77.01 1026.8
02 20:53 E 15 16.09 Overcast FEW006 BKN029 OVC037 7.8 6.1 89% 6 76.96 1026.0
02 19:53 E 9 16.09 Overcast FEW006 BKN029 OVC042 8.3 6.1 86% 7 76.96 1026.1
02 18:53 E 24 16.09 Overcast SCT006 BKN034 OVC042 8.3 6.7 90% 5 76.94 1025.7
02 17:53 E 15 16.09 Overcast FEW009 OVC027 7.8 6.7 93% 6 76.96 1025.9
02 16:53 E 20 16.09 Light Rain SCT008 BKN023 OVC028 7.8 6.7 93% 5 76.91 1025.4
02 15:53 E 17 16.09 Overcast SCT008 OVC022 7.8 6.7 7.8 7.2 93% 5 76.96 1025.9
02 14:53 E 20 16.09 Overcast FEW003 SCT008 OVC025 7.2 6.1 93% 4 76.94 1025.5
02 13:53 E 17 16.09 Overcast FEW003 SCT008 OVC026 7.2 6.1 93% 5 76.94 1025.5
02 12:53 E 17 16.09 Overcast FEW003 SCT012 OVC027 7.2 6.1 93% 5 76.91 1025.5
02 11:53 E 19 16.09 Light Rain FEW003 SCT015 OVC024 7.8 6.7 93% 5 76.89 1025.0
02 10:53 E 20 11.27 Light Rain FEW003 SCT015 OVC027 7.2 6.1 93% 4 76.84 1024.4
02 09:53 E 15 12.87 Light Rain FEW004 SCT014 OVC028 7.2 5.6 7.2 6.7 90% 5 76.84 1024.2 0.1
02 08:53 E 17 12.87 Overcast FEW005 SCT016 OVC029 7.2 5.6 90% 5 76.78 1023.6
02 07:53 E 19 12.87 Overcast FEW005 SCT018 OVC032 6.7 5.6 93% 4 76.76 1023.2
02 06:53 E 20 11.27 Light Rain FEW004 BKN028 OVC044 6.7 5 89% 3 76.73 1022.9 0.03 0.1
02 05:53 E 20 9.66 Light Rain Fog/Mist FEW004 BKN029 OVC042 6.7 5.6 93% 3 76.73 1023.0 0.05
02 04:53 E 15 8.05 Light Rain Fog/Mist FEW005 SCT015 OVC028 7.2 6.1 93% 5 76.73 1022.9 0.03
02 03:53 E 17 16.09 Light Rain FEW010 BKN032 OVC045 7.2 6.1 8.9 6.7 93% 5 76.71 1022.5 0.1
02 02:53 E 17 16.09 Light Rain FEW010 SCT030 OVC050 6.7 5 89% 4 76.68 1022.2 0.03
02 01:53 E 19 16.09 Light Rain FEW015 BKN035 OVC050 7.2 5.6 90% 4 76.68 1022.4 0.05
02 00:53 E 15 16.09 Light Rain FEW024 SCT035 OVC050 7.2 5 86% 5 76.73 1023.1 0.03 0.03
01 23:53 E 13 16.09 Light Rain FEW038 BKN050 OVC060 7.8 6.1 89% 6 76.81 1023.8
01 22:53 E 22 16.09 Overcast FEW033 BKN042 OVC075 8.3 5.6 83% 5 76.76 1023.2
01 21:53 SE 26 16.09 Overcast SCT032 BKN046 OVC085 8.9 5.6 12.8 7.8 80% 6 76.71 1022.6
01 20:53 E 19 16.09 Mostly Cloudy SCT032 BKN055 BKN090 8.3 5.6 83% 6 76.71 1022.5
01 19:53 E 17 16.09 Mostly Cloudy SCT036 BKN055 BKN180 8.3 5.6 83% 6 76.71 1022.7
01 18:53 E 20 16.09 Mostly Cloudy SCT033 BKN047 BKN180 9.4 6.1 80% 7 76.73 1022.9
01 17:53 SE 20 16.09 Mostly Cloudy SCT033 BKN040 BKN055 BKN180 11.1 6.1 72% 76.76 1023.2
01 16:53 E 20 16.09 Mostly Cloudy SCT030 BKN055 BKN180 BKN250 11.1 6.1 72% 76.73 1023.1
01 15:53 S 15 G 28 16.09 Mostly Cloudy SCT030 BKN040 BKN180 BKN250 12.8 5 13.9 7.8 59% 76.78 1023.6
01 14:53 SE 17 G 30 16.09 Mostly Cloudy FEW036 SCT045 BKN075 BKN180 11.7 5 64% 76.78 1023.6
01 13:53 E 20 16.09 Mostly Cloudy FEW028 SCT048 BKN080 BKN140 11.1 5.6 69% 76.78 1023.6
01 12:53 Vrbl 7 16.09 Mostly Cloudy FEW027 SCT041 BKN050 BKN140 11.7 3.3 57% 76.81 1024.1
01 11:53 SW 15 16.09 Mostly Cloudy FEW026 BKN043 BKN085 10 3.9 66% 8 76.81 1024.0
01 10:53 SW 6 16.09 Mostly Cloudy FEW025 SCT038 BKN047 BKN140 9.4 5 74% 76.78 1023.6
01 09:53 Calm 16.09 Mostly Cloudy FEW021 BKN036 BKN049 7.8 3.3 7.8 3.9 73% 76.81 1023.8
01 08:53 Calm 16.09 Mostly Cloudy FEW012 BKN034 BKN048 6.7 3.3 79% 76.81 1023.9
01 07:53 Calm 16.09 Overcast FEW009 SCT026 OVC035 5.6 3.9 89% 76.78 1023.8
01 06:53 Calm 16.09 Overcast FEW007 FEW024 OVC043 5 3.3 89% 76.76 1023.3
01 05:53 Calm 16.09 Overcast FEW007 FEW024 OVC043 4.4 3.3 93% 76.76 1023.2
01 04:53 SW 6 16.09 Overcast FEW007 FEW027 OVC043 3.9 3.3 96% 76.73 1022.9
01 03:53 Calm 16.09 Overcast FEW005 OVC042 3.9 3.9 6.7 3.9 100% 76.73 1022.9
01 02:53 Calm 16.09 Mostly Cloudy FEW012 BKN045 4.4 3.9 97% 76.73 1022.9
01 01:53 Calm 16.09 Overcast FEW007 OVC046 5 3.9 93% 76.73 1023.1
01 00:53 Calm 16.09 Overcast FEW007 OVC043 5 3.9 93% 76.73 1023.1
30 23:53 Calm 16.09 Mostly Cloudy FEW005 BKN027 BKN048 6.1 5 93% 76.73 1023.1
30 22:53 Calm 16.09 Overcast BKN027 OVC050 6.7 4.4 85% 76.73 1023.0
30 21:53 NE 6 16.09 Overcast FEW023 BKN033 OVC048 6.7 5.6 10.6 6.7 93% 76.71 1022.7
30 20:53 Calm 16.09 Overcast FEW024 BKN035 OVC048 7.8 3.3 73% 76.68 1022.4
30 19:53 NW 7 16.09 Mostly Cloudy SCT024 BKN029 BKN048 8.3 3.3 71% 7 76.66 1022.1
30 18:53 NW 9 16.09 Mostly Cloudy SCT036 BKN047 BKN150 9.4 3.3 66% 8 76.66 1022.1
30 17:53 W 15 16.09 Mostly Cloudy FEW030 BKN042 BKN150 9.4 3.3 66% 7 76.66 1022.0
30 16:53 NW 13 16.09 Mostly Cloudy SCT037 BKN045 BKN150 10 3.9 66% 8 76.66 1022.0
Date Time (akdt) Wind (kph) Vis. (km) Weather Sky Cond. Air Dwpt Max. Min. Relative Humidity Wind Chill (°C) Heat Index (°C) altimeter (cm) sea level (mb) 1 hr 3 hr 6 hr
6 hour
Temperature (ºC) Pressure Precipitation (cm)